{"data":{"norad_id":63558,"epoch":"2026-05-25T03:43:13.353024Z","epoch_age_seconds":51917,"freshness":"FRESH","line1":"1 63558U 25075L   26145.15501566  .00248750  00000+0  18771-2 0  9994","line2":"2 63558  43.0004  52.9799 0002482 267.6778  92.3805 15.70934371 65277","mean_motion":15.70934371,"eccentricity":0.0002482,"inclination_deg":43.0004,"raan_deg":52.9799,"arg_perigee_deg":267.6778,"mean_anomaly_deg":92.3805,"bstar":0.0018771,"rev_number":6527,"period_min":91.66519153078,"perigee_km":354.55387635771,"apogee_km":357.89681382582,"semimajor_km":6734.3623450918,"source":"CELESTRAK","updated_at":"2026-05-25T13:38:20.042725Z"}}